Orbital Elements at Epoch 2459000.5 (2020-May-31.0) TDB
Reference: JPL 16 (heliocentric ecliptic J2000)
Element | Value | Uncertainty (1-sigma) | Units |
e | .05571105117344179 | 7.8637e-08 | |
a | 5.211288459003527 | 2.2406e-07 | au |
q | 4.920962100984415 | 5.8145e-07 | au |
i | 16.63699582831981 | 9.8445e-06 | deg |
node | 210.1564729171328 | 1.9871e-05 | deg |
peri | 83.3879648315113 | 0.00010679 | deg |
M | 285.2435290037973 | 0.00011042 | deg |
tp | 2459902.823747853562 (2022-Nov-19.32374785) | 0.0013568 | TDB |
period | 4345.263291572212 11.90 | 0.00028023 7.672e-07 | d yr |
n | .08284883466054462 | 5.3431e-09 | deg/d |
Q | 5.50161481702264 | 2.3654e-07 | au |
|
| | Orbit Determination Parameters
Additional Information
|